Peotone Weather
Station Historical Data
 
Daily Summary for March 27, 2017 Units:  English    Metric   Both
« Previous Day
Next Day »
Daily Weekly Monthly Yearly Custom
  Current: High: Low: Average:
Temperature: 41.8 °F 55.2 °F 41.7 °F 49.6 °F
Dew Point: 39.4 °F 51.4 °F 39.3 °F 47.5 °F
Humidity: 91% 96% 86% 93%
Wind Speed: 6.9mph 14.9mph 0.0mph 4.7mph
Wind Gust: 9.2mph 16.1mph - -
WindNE - - SSE
Pressure: 29.96 in 29.96 in 29.87 in -
Precipitation: 0.05 in      
Historical Graphs
 
 
Tabular Data for March 27, 2017
Time Temperature Dew Point Pressure Wind Wind Speed Wind Gust Humidity Rainfall Rate (Hourly) solar Conditions
00:00 50.1 °F 48.4 °F 29.90 in WSW 10.3 mph 13.8 mph 94% 0.00 in 0.00 W/m2
00:05 50.1 °F 48.4 °F 29.90 in SW 6.9 mph 10.3 mph 94% 0.00 in 0.00 W/m2
00:10 50.0 °F 48.6 °F 29.90 in West 6.9 mph 13.8 mph 95% 0.00 in 0.00 W/m2
00:15 49.9 °F 48.5 °F 29.90 in SW 8.1 mph 9.2 mph 95% 0.00 in 0.00 W/m2
00:20 49.8 °F 48.4 °F 29.90 in WSW 10.3 mph 11.5 mph 95% 0.00 in 0.00 W/m2
00:25 49.8 °F 48.4 °F 29.90 in SW 4.6 mph 11.5 mph 95% 0.00 in 0.00 W/m2
00:30 49.8 °F 48.4 °F 29.90 in WSW 10.3 mph 12.6 mph 95% 0.00 in 0.00 W/m2
00:35 49.8 °F 48.4 °F 29.90 in West 9.2 mph 14.9 mph 95% 0.00 in 0.00 W/m2
00:40 49.8 °F 48.4 °F 29.90 in West 10.3 mph 13.8 mph 95% 0.00 in 0.00 W/m2
00:45 49.9 °F 48.5 °F 29.90 in SW 5.8 mph 12.6 mph 95% 0.00 in 0.00 W/m2
00:50 50.0 °F 48.6 °F 29.90 in SW 9.2 mph 13.8 mph 95% 0.00 in 0.00 W/m2
00:55 50.0 °F 48.6 °F 29.90 in WSW 6.9 mph 14.9 mph 95% 0.00 in 0.00 W/m2
01:01 50.0 °F 48.6 °F 29.90 in SW 6.9 mph 11.5 mph 95% 0.00 in 0.00 W/m2
01:06 50.0 °F 48.6 °F 29.90 in WSW 8.1 mph 11.5 mph 95% 0.00 in 0.00 W/m2
01:11 50.0 °F 48.6 °F 29.90 in SW 5.8 mph 11.5 mph 95% 0.00 in 0.00 W/m2
01:16 50.0 °F 48.6 °F 29.90 in West 10.3 mph 13.8 mph 95% 0.00 in 0.00 W/m2
01:21 50.0 °F 48.3 °F 29.90 in WSW 9.2 mph 11.5 mph 94% 0.00 in 0.00 W/m2
01:26 50.1 °F 48.4 °F 29.90 in West 4.6 mph 12.6 mph 94% 0.00 in 0.00 W/m2
01:31 50.0 °F 48.3 °F 29.90 in West 8.1 mph 12.6 mph 94% 0.00 in 0.00 W/m2
01:36 50.0 °F 48.3 °F 29.90 in WSW 8.1 mph 11.5 mph 94% 0.00 in 0.00 W/m2
01:41 50.1 °F 48.4 °F 29.90 in SW 5.8 mph 11.5 mph 94% 0.00 in 0.00 W/m2
01:46 50.1 °F 48.4 °F 29.91 in WSW 6.9 mph 11.5 mph 94% 0.00 in 0.00 W/m2
01:51 50.1 °F 48.4 °F 29.91 in WSW 4.6 mph 11.5 mph 94% 0.00 in 0.00 W/m2
01:56 50.1 °F 48.4 °F 29.91 in WSW 6.9 mph 14.9 mph 94% 0.00 in 0.00 W/m2
02:00 50.1 °F 48.4 °F 29.91 in WSW 5.8 mph 12.6 mph 94% 0.00 in 0.00 W/m2
02:04 50.1 °F 48.4 °F 29.91 in SW 10.3 mph 10.3 mph 94% 0.00 in 0.00 W/m2
02:05 50.1 °F 48.4 °F 29.91 in West 5.8 mph 10.4 mph 94% 0.00 in 0.00 W/m2
02:09 50.1 °F 48.4 °F 29.91 in WSW 6.9 mph 12.6 mph 94% 0.00 in 0.00 W/m2
02:10 50.1 °F 48.4 °F 29.91 in WSW 3.5 mph 12.6 mph 94% 0.00 in 0.00 W/m2
02:14 50.0 °F 48.3 °F 29.91 in West 10.3 mph 10.3 mph 94% 0.00 in 0.00 W/m2
02:15 50.0 °F 48.3 °F 29.91 in WNW 5.8 mph 10.4 mph 94% 0.00 in 0.00 W/m2
02:19 50.0 °F 48.3 °F 29.91 in WSW 8.1 mph 10.3 mph 94% 0.00 in 0.00 W/m2
02:20 50.0 °F 48.3 °F 29.91 in WSW 11.5 mph 11.5 mph 94% 0.00 in 0.00 W/m2
02:24 50.0 °F 48.3 °F 29.91 in West 6.9 mph 11.5 mph 94% 0.00 in 0.00 W/m2
02:25 50.0 °F 48.3 °F 29.91 in WSW 4.6 mph 11.5 mph 94% 0.00 in 0.00 W/m2
02:29 50.0 °F 48.3 °F 29.91 in WSW 8.1 mph 12.6 mph 94% 0.00 in 0.00 W/m2
02:30 50.0 °F 48.3 °F 29.91 in West 8.1 mph 12.6 mph 94% 0.00 in 0.00 W/m2
02:34 50.0 °F 48.3 °F 29.91 in West 4.6 mph 9.2 mph 94% 0.00 in 0.00 W/m2
02:35 49.9 °F 48.2 °F 29.91 in WSW 4.6 mph 9.2 mph 94% 0.00 in 0.00 W/m2
02:39 49.9 °F 48.2 °F 29.91 in SW 8.1 mph 12.6 mph 94% 0.00 in 0.00 W/m2
02:40 49.9 °F 48.2 °F 29.91 in WSW 5.8 mph 12.6 mph 94% 0.00 in 0.00 W/m2
02:44 49.9 °F 48.2 °F 29.91 in WSW 9.2 mph 11.5 mph 94% 0.00 in 0.00 W/m2
02:45 49.9 °F 48.2 °F 29.91 in WSW 9.2 mph 13.8 mph 94% 0.00 in 0.00 W/m2
02:49 49.9 °F 48.2 °F 29.91 in WSW 5.8 mph 12.6 mph 94% 0.00 in 0.00 W/m2
02:50 49.9 °F 48.2 °F 29.91 in West 6.9 mph 12.6 mph 94% 0.00 in 0.00 W/m2
02:54 49.8 °F 48.2 °F 29.91 in West 9.2 mph 10.3 mph 94% 0.00 in 0.00 W/m2
02:55 49.8 °F 48.2 °F 29.91 in West 4.6 mph 10.4 mph 94% 0.00 in 0.00 W/m2
02:59 49.8 °F 48.2 °F 29.91 in WSW 5.8 mph 11.5 mph 94% 0.00 in 0.00 W/m2
03:06 49.7 °F 48.3 °F 29.91 in SW 11.5 mph 11.5 mph 95% 0.00 in 0.00 W/m2
03:11 49.7 °F 48.3 °F 29.91 in West 8.1 mph 12.6 mph 95% 0.00 in 0.00 W/m2
03:16 49.6 °F 48.2 °F 29.91 in WSW 9.2 mph 13.8 mph 95% 0.00 in 0.00 W/m2
03:21 49.6 °F 48.2 °F 29.91 in WSW 10.3 mph 11.5 mph 95% 0.00 in 0.00 W/m2
03:26 49.5 °F 48.1 °F 29.91 in SW 6.9 mph 9.2 mph 95% 0.00 in 0.00 W/m2
03:31 49.5 °F 48.1 °F 29.91 in WSW 6.9 mph 6.9 mph 95% 0.00 in 0.00 W/m2
03:36 49.5 °F 48.1 °F 29.91 in WSW 2.3 mph 8.1 mph 95% 0.00 in 0.00 W/m2
03:41 49.5 °F 48.1 °F 29.91 in SW 8.1 mph 9.2 mph 95% 0.00 in 0.00 W/m2
03:46 49.5 °F 48.1 °F 29.91 in WSW 10.3 mph 10.3 mph 95% 0.00 in 0.00 W/m2
03:51 49.4 °F 48.0 °F 29.91 in West 3.4 mph 10.3 mph 95% 0.00 in 0.00 W/m2
03:56 49.5 °F 48.1 °F 29.91 in West 4.6 mph 9.2 mph 95% 0.00 in 0.00 W/m2
04:01 49.4 °F 48.0 °F 29.91 in WSW 9.2 mph 11.5 mph 95% 0.00 in 0.00 W/m2
04:06 49.3 °F 48.2 °F 29.92 in WSW 6.9 mph 6.9 mph 96% 0.00 in 0.00 W/m2
04:11 49.3 °F 48.2 °F 29.91 in West 6.9 mph 13.8 mph 96% 0.00 in 0.00 W/m2
04:16 49.3 °F 48.2 °F 29.91 in WSW 6.9 mph 11.5 mph 96% 0.00 in 0.00 W/m2
04:21 49.3 °F 48.2 °F 29.91 in SW 11.5 mph 12.6 mph 96% 0.00 in 0.00 W/m2
04:26 49.2 °F 48.1 °F 29.91 in WSW 4.6 mph 11.5 mph 96% 0.00 in 0.00 W/m2
04:31 49.2 °F 48.1 °F 29.91 in WSW 4.6 mph 11.5 mph 96% 0.00 in 0.00 W/m2
04:36 49.2 °F 48.1 °F 29.91 in West 6.9 mph 10.3 mph 96% 0.00 in 0.00 W/m2
04:41 49.2 °F 48.1 °F 29.91 in WSW 5.8 mph 6.9 mph 96% 0.00 in 0.00 W/m2
04:46 49.1 °F 48.0 °F 29.91 in West 5.8 mph 6.9 mph 96% 0.00 in 0.00 W/m2
04:51 49.1 °F 48.0 °F 29.91 in West 6.9 mph 6.9 mph 96% 0.00 in 0.00 W/m2
04:56 49.1 °F 48.0 °F 29.91 in WSW 4.6 mph 4.6 mph 96% 0.00 in 0.00 W/m2
05:01 49.2 °F 47.8 °F 29.91 in WSW 5.8 mph 5.8 mph 95% 0.00 in 0.00 W/m2
05:06 49.2 °F 47.8 °F 29.90 in West 4.6 mph 6.9 mph 95% 0.00 in 0.00 W/m2
05:11 49.2 °F 47.8 °F 29.91 in WSW 3.4 mph 5.8 mph 95% 0.00 in 0.00 W/m2
05:16 49.2 °F 47.8 °F 29.91 in WSW 4.6 mph 4.6 mph 95% 0.00 in 0.00 W/m2
05:21 49.1 °F 47.5 °F 29.91 in WSW 5.8 mph 8.1 mph 94% 0.00 in 0.00 W/m2
05:26 49.2 °F 47.8 °F 29.91 in West 5.8 mph 5.8 mph 95% 0.00 in 0.00 W/m2
05:31 49.1 °F 47.5 °F 29.91 in West 4.6 mph 5.8 mph 94% 0.00 in 0.00 W/m2
05:36 49.1 °F 47.5 °F 29.91 in West 5.8 mph 5.8 mph 94% 0.00 in 0.00 W/m2
05:41 49.1 °F 47.5 °F 29.91 in West 6.9 mph 10.3 mph 94% 0.00 in 0.00 W/m2
05:46 49.0 °F 47.3 °F 29.92 in West 5.8 mph 5.8 mph 94% 0.00 in 0.00 W/m2
05:51 49.0 °F 47.3 °F 29.92 in WNW 5.8 mph 8.1 mph 94% 0.00 in 0.00 W/m2
05:56 49.0 °F 47.3 °F 29.92 in WSW 4.6 mph 4.6 mph 94% 0.00 in 0.00 W/m2
06:01 49.0 °F 47.3 °F 29.92 in WSW 4.6 mph 4.6 mph 94% 0.00 in 0.00 W/m2
06:06 49.0 °F 47.3 °F 29.92 in WSW 6.9 mph 6.9 mph 94% 0.00 in 0.00 W/m2
06:11 49.0 °F 47.3 °F 29.92 in SW 4.6 mph 5.8 mph 94% 0.00 in 0.00 W/m2
06:14 49.0 °F 47.3 °F 29.93 in SW 3.4 mph 8.1 mph 94% 0.00 in 0.00 W/m2
06:19 49.0 °F 47.3 °F 29.93 in SW 5.8 mph 8.1 mph 94% 0.00 in 0.00 W/m2
06:24 49.0 °F 47.3 °F 29.93 in WSW 4.6 mph 5.8 mph 94% 0.00 in 0.00 W/m2
06:29 49.0 °F 47.3 °F 29.93 in SW 5.8 mph 8.1 mph 94% 0.00 in 0.00 W/m2
06:34 49.0 °F 47.1 °F 29.93 in WSW 5.8 mph 6.9 mph 93% 0.00 in 0.00 W/m2
06:39 49.0 °F 47.3 °F 29.93 in WSW 3.4 mph 5.8 mph 94% 0.00 in 0.00 W/m2
06:44 49.0 °F 47.3 °F 29.93 in WSW 3.4 mph 4.6 mph 94% 0.00 in 0.00 W/m2
06:49 49.0 °F 47.3 °F 29.93 in WSW 1.1 mph 5.8 mph 94% 0.00 in 0.00 W/m2
06:54 49.1 °F 47.5 °F 29.94 in SW 3.4 mph 4.6 mph 94% 0.00 in 5.00 W/m2
06:59 49.1 °F 47.5 °F 29.94 in SW 2.3 mph 3.4 mph 94% 0.00 in 7.00 W/m2
07:04 49.2 °F 47.5 °F 29.94 in SW 4.6 mph 5.8 mph 94% 0.00 in 7.00 W/m2
07:09 49.2 °F 47.5 °F 29.94 in WSW 4.6 mph 8.1 mph 94% 0.00 in 11.00 W/m2
07:14 49.2 °F 47.5 °F 29.94 in WSW 4.6 mph 4.6 mph 94% 0.00 in 12.00 W/m2
07:19 49.2 °F 47.5 °F 29.93 in SW 5.8 mph 5.8 mph 94% 0.00 in 14.00 W/m2
07:24 49.2 °F 47.5 °F 29.94 in SW 4.6 mph 4.6 mph 94% 0.00 in 16.00 W/m2
07:29 49.2 °F 47.5 °F 29.93 in WSW 2.3 mph 4.6 mph 94% 0.00 in 16.00 W/m2
07:34 49.1 °F 47.5 °F 29.94 in WSW 2.3 mph 4.6 mph 94% 0.00 in 19.00 W/m2
07:39 49.2 °F 47.8 °F 29.93 in West 2.3 mph 4.6 mph 95% 0.00 in 28.00 W/m2
07:45 49.3 °F 47.9 °F 29.93 in WNW 2.3 mph 4.6 mph 95% 0.00 in 51.00 W/m2
07:50 49.3 °F 47.9 °F 29.93 in Calm   3.4 mph 95% 0.00 in 60.00 W/m2
07:55 49.2 °F 47.8 °F 29.94 in WNW 4.6 mph 4.6 mph 95% 0.00 in 40.00 W/m2
08:00 49.4 °F 48.0 °F 29.94 in Calm   3.4 mph 95% 0.00 in 72.00 W/m2
08:05 49.6 °F 48.2 °F 29.93 in Calm     95% 0.00 in 88.00 W/m2
08:10 49.7 °F 48.3 °F 29.93 in Calm     95% 0.00 in 111.00 W/m2
08:11 49.9 °F 48.5 °F 29.93 in Calm     95% 0.00 in 125.00 W/m2
08:16 50.0 °F 48.6 °F 29.93 in WNW 3.4 mph 5.8 mph 95% 0.00 in 197.00 W/m2
08:21 50.4 °F 49.0 °F 29.93 in NW 5.8 mph 8.1 mph 95% 0.00 in 135.00 W/m2
08:26 50.4 °F 48.7 °F 29.93 in NW 1.1 mph 5.8 mph 94% 0.00 in 109.00 W/m2
08:31 50.4 °F 48.7 °F 29.93 in NW 2.3 mph 4.6 mph 94% 0.00 in 114.00 W/m2
08:36 50.4 °F 48.5 °F 29.93 in NW 3.4 mph 4.6 mph 93% 0.00 in 107.00 W/m2
08:41 50.3 °F 48.4 °F 29.94 in NW 3.4 mph 5.8 mph 93% 0.00 in 88.00 W/m2
08:46 50.0 °F 48.1 °F 29.94 in NW 1.1 mph 3.4 mph 93% 0.00 in 63.00 W/m2
08:51 50.0 °F 48.1 °F 29.94 in NW 3.4 mph 4.6 mph 93% 0.00 in 62.00 W/m2
08:56 50.3 °F 48.6 °F 29.94 in NW 2.3 mph 3.4 mph 94% 0.00 in 100.00 W/m2
09:01 50.6 °F 48.9 °F 29.94 in Calm   3.4 mph 94% 0.00 in 176.00 W/m2
09:06 50.8 °F 48.8 °F 29.94 in NW 1.1 mph 3.4 mph 93% 0.00 in 195.00 W/m2
09:11 51.3 °F 49.3 °F 29.94 in Calm   3.4 mph 93% 0.00 in 218.00 W/m2
09:16 50.9 °F 48.7 °F 29.94 in North 3.4 mph 3.4 mph 92% 0.00 in 146.00 W/m2
09:21 50.6 °F 48.4 °F 29.94 in North 1.1 mph 1.1 mph 92% 0.00 in 109.00 W/m2
09:26 50.6 °F 48.4 °F 29.94 in North 1.1 mph 1.1 mph 92% 0.00 in 139.00 W/m2
09:31 50.8 °F 48.8 °F 29.94 in Calm     93% 0.00 in 156.00 W/m2
09:36 51.2 °F 49.2 °F 29.94 in North 1.1 mph 2.3 mph 93% 0.00 in 144.00 W/m2
09:41 51.3 °F 49.1 °F 29.94 in North 2.3 mph 3.4 mph 92% 0.00 in 120.00 W/m2
09:46 51.1 °F 48.6 °F 29.94 in North 1.1 mph 2.3 mph 91% 0.00 in 165.00 W/m2
09:51 51.1 °F 48.9 °F 29.94 in Calm     92% 0.00 in 142.00 W/m2
09:56 51.2 °F 49.0 °F 29.94 in Calm   1.1 mph 92% 0.00 in 155.00 W/m2
10:01 51.4 °F 48.9 °F 29.95 in NNE 3.4 mph 3.4 mph 91% 0.00 in 146.00 W/m2
10:06 51.2 °F 49.0 °F 29.95 in NNE 1.1 mph 2.3 mph 92% 0.00 in 162.00 W/m2
10:09 51.2 °F 49.0 °F 29.95 in NNE 2.3 mph 3.4 mph 92% 0.00 in 195.00 W/m2
10:15 51.5 °F 49.0 °F 29.95 in Calm   2.3 mph 91% 0.00 in 223.00 W/m2
10:20 51.8 °F 49.3 °F 29.95 in North 3.4 mph 4.6 mph 91% 0.00 in 229.00 W/m2
10:25 51.8 °F 49.0 °F 29.95 in Calm   2.3 mph 90% 0.00 in 197.00 W/m2
10:30 52.0 °F 49.5 °F 29.95 in Calm     91% 0.00 in 178.00 W/m2
10:35 52.3 °F 49.5 °F 29.95 in Calm   1.1 mph 90% 0.00 in 167.00 W/m2
10:40 52.3 °F 49.5 °F 29.95 in Calm   2.3 mph 90% 0.00 in 176.00 W/m2
10:45 52.1 °F 49.0 °F 29.95 in Calm   1.1 mph 89% 0.00 in 158.00 W/m2
10:50 52.0 °F 49.2 °F 29.95 in Calm   2.3 mph 90% 0.00 in 149.00 W/m2
10:55 52.4 °F 49.8 °F 29.95 in NNE 1.1 mph 2.3 mph 91% 0.00 in 178.00 W/m2
11:00 52.5 °F 49.0 °F 29.95 in Calm   3.4 mph 88% 0.00 in 169.00 W/m2
11:05 52.6 °F 49.5 °F 29.95 in NE 3.4 mph 3.4 mph 89% 0.00 in 163.00 W/m2
11:10 52.6 °F 49.5 °F 29.95 in ENE 2.3 mph 4.6 mph 89% 0.00 in 130.00 W/m2
11:15 52.4 °F 49.3 °F 29.95 in East 1.1 mph 5.8 mph 89% 0.00 in 116.00 W/m2
11:20 52.3 °F 49.5 °F 29.95 in East 5.8 mph 5.8 mph 90% 0.00 in 102.00 W/m2
11:25 52.6 °F 49.8 °F 29.95 in East 3.4 mph 5.8 mph 90% 0.00 in 83.00 W/m2
11:30 52.6 °F 49.8 °F 29.94 in SE 8.1 mph 8.1 mph 90% 0.00 in 74.00 W/m2
11:35 52.3 °F 49.8 °F 29.94 in SSE 5.8 mph 9.2 mph 91% 0.00 in 77.00 W/m2
11:40 52.1 °F 49.8 °F 29.95 in SSE 3.4 mph 9.2 mph 92% 0.00 in 81.00 W/m2
11:45 52.0 °F 49.8 °F 29.95 in SSE 3.4 mph 9.2 mph 92% 0.00 in 93.00 W/m2
11:50 52.0 °F 49.8 °F 29.94 in South 1.1 mph 8.1 mph 92% 0.00 in 183.00 W/m2
11:55 52.3 °F 50.0 °F 29.94 in SSE 2.3 mph 5.8 mph 92% 0.00 in 216.00 W/m2
12:00 52.3 °F 49.8 °F 29.94 in SSE 2.3 mph 4.6 mph 91% 0.00 in 214.00 W/m2
12:05 52.8 °F 50.2 °F 29.94 in Calm   4.6 mph 91% 0.00 in 204.00 W/m2
12:10 52.8 °F 50.2 °F 29.94 in SSE 1.1 mph 4.6 mph 91% 0.00 in 188.00 W/m2
12:15 52.9 °F 50.0 °F 29.94 in SE 2.3 mph 4.6 mph 90% 0.00 in 181.00 W/m2
12:20 53.1 °F 50.5 °F 29.94 in SE 3.4 mph 4.6 mph 91% 0.00 in 153.00 W/m2
12:25 53.3 °F 50.5 °F 29.94 in SE 2.3 mph 4.6 mph 90% 0.00 in 171.00 W/m2
12:30 53.5 °F 50.6 °F 29.93 in ESE 3.4 mph 5.8 mph 90% 0.00 in 188.00 W/m2
12:35 53.6 °F 50.4 °F 29.93 in ESE 1.1 mph 3.4 mph 89% 0.00 in 248.00 W/m2
12:40 53.9 °F 50.7 °F 29.93 in SE 3.4 mph 5.8 mph 89% 0.00 in 183.00 W/m2
12:45 53.7 °F 49.9 °F 29.93 in Calm   4.6 mph 87% 0.00 in 213.00 W/m2
12:50 53.7 °F 50.5 °F 29.93 in ESE 5.8 mph 5.8 mph 89% 0.00 in 243.00 W/m2
12:55 53.8 °F 50.0 °F 29.93 in ESE 1.1 mph 4.6 mph 87% 0.00 in 336.00 W/m2
12:58 54.0 °F 50.8 °F 29.93 in ESE 1.1 mph 3.4 mph 89% 0.00 in 373.00 W/m2
13:00 54.4 °F 50.9 °F 29.92 in ESE 1.1 mph 4.6 mph 88% 0.00 in 473.00 W/m2
13:05 54.9 °F 51.4 °F 29.92 in Calm   4.6 mph 88% 0.00 in 385.00 W/m2
13:10 55.1 °F 51.0 °F 29.92 in East 2.3 mph 6.9 mph 86% 0.00 in 353.00 W/m2
13:15 54.9 °F 50.8 °F 29.92 in Calm   5.8 mph 86% 0.00 in 339.00 W/m2
13:21 55.1 °F 51.0 °F 29.91 in Calm   1.1 mph 86% 0.00 in 285.00 W/m2
13:26 54.8 °F 50.7 °F 29.91 in Calm   4.6 mph 86% 0.00 in 223.00 W/m2
13:31 55.1 °F 51.3 °F 29.91 in Calm   1.1 mph 87% 0.00 in 181.00 W/m2
13:36 55.2 °F 51.4 °F 29.91 in Calm   1.1 mph 87% 0.00 in 236.00 W/m2
13:41 55.1 °F 51.0 °F 29.90 in ENE 2.3 mph 2.3 mph 86% 0.00 in 223.00 W/m2
13:46 55.0 °F 50.9 °F 29.90 in ENE 2.3 mph 2.3 mph 86% 0.00 in 181.00 W/m2
13:51 55.0 °F 50.9 °F 29.90 in Calm   3.4 mph 86% 0.00 in 139.00 W/m2
13:56 55.0 °F 50.9 °F 29.90 in ENE 2.3 mph 3.4 mph 86% 0.00 in 95.00 W/m2
14:01 55.1 °F 51.0 °F 29.91 in Calm   5.8 mph 86% 0.00 in 88.00 W/m2
14:04 55.0 °F 50.9 °F 29.90 in East 1.1 mph 2.3 mph 86% 0.00 in 84.00 W/m2
14:09 54.9 °F 50.8 °F 29.90 in East 2.3 mph 5.8 mph 86% 0.00 in 70.00 W/m2
14:14 54.7 °F 50.6 °F 29.90 in Calm   1.1 mph 86% 0.00 in 74.00 W/m2
14:19 54.7 °F 50.9 °F 29.90 in Calm   2.3 mph 87% 0.00 in 74.00 W/m2
14:24 54.8 °F 51.0 °F 29.90 in East 2.3 mph 2.3 mph 87% 0.00 in 77.00 W/m2
14:29 54.7 °F 50.9 °F 29.90 in Calm   2.3 mph 87% 0.00 in 62.00 W/m2
14:30 54.7 °F 50.6 °F 29.90 in East 1.1 mph 3.4 mph 86% 0.00 in 63.00 W/m2
14:32 54.6 °F 50.8 °F 29.90 in East 2.3 mph 2.3 mph 87% 0.00 in 65.00 W/m2
14:33 54.6 °F 50.8 °F 29.90 in Calm   2.3 mph 87% 0.00 in 69.00 W/m2
14:36 54.6 °F 50.8 °F 29.90 in Calm   2.3 mph 87% 0.00 in 67.00 W/m2
14:37 54.6 °F 50.8 °F 29.90 in Calm     87% 0.00 in 63.00 W/m2
14:40 54.6 °F 50.8 °F 29.90 in Calm     87% 0.00 in 62.00 W/m2
14:41 54.6 °F 50.8 °F 29.90 in Calm     87% 0.00 in 63.00 W/m2
14:46 54.4 °F 50.9 °F 29.90 in Calm   1.1 mph 88% 0.01 in 84.00 W/m2
14:48 54.3 °F 50.8 °F 29.90 in Calm   3.4 mph 88% 0.01 in 81.00 W/m2
14:50 54.2 °F 51.0 °F 29.90 in East 1.1 mph 3.4 mph 89% 0.01 in 77.00 W/m2
14:52 54.2 °F 51.0 °F 29.90 in Calm   2.3 mph 89% 0.01 in 76.00 W/m2
15:00 54.1 °F 51.2 °F 29.90 in Calm   1.1 mph 90% 0.01 in 84.00 W/m2
15:05 54.1 °F 51.2 °F 29.89 in ENE 2.3 mph 5.8 mph 90% 0.01 in 77.00 W/m2
15:08 53.8 °F 51.2 °F 29.89 in ENE 2.3 mph 3.4 mph 91% 0.01 in 72.00 W/m2
15:13 53.5 °F 51.2 °F 29.89 in NE 4.6 mph 4.6 mph 92% 0.01 in 69.00 W/m2
15:18 53.4 °F 51.4 °F 29.89 in NE 1.1 mph 3.4 mph 93% 0.02 in 77.00 W/m2
15:23 53.2 °F 51.2 °F 29.89 in NE 2.3 mph 2.3 mph 93% 0.02 in 74.00 W/m2
15:28 53.0 °F 51.0 °F 29.89 in Calm   4.6 mph 93% 0.02 in 67.00 W/m2
15:34 53.0 °F 51.0 °F 29.89 in NE 1.1 mph 6.9 mph 93% 0.03 in 79.00 W/m2
15:39 52.9 °F 51.2 °F 29.89 in NE 6.9 mph 6.9 mph 94% 0.03 in 83.00 W/m2
15:44 52.6 °F 50.6 °F 29.89 in NE 5.8 mph 8.1 mph 93% 0.03 in 84.00 W/m2
15:49 52.5 °F 50.5 °F 29.89 in NNE 1.1 mph 5.8 mph 93% 0.02 in 95.00 W/m2
15:54 52.6 °F 50.9 °F 29.89 in NE 5.8 mph 9.2 mph 94% 0.02 in 105.00 W/m2
15:59 52.1 °F 50.1 °F 29.89 in NE 2.3 mph 5.8 mph 93% 0.03 in 118.00 W/m2
16:04 52.3 °F 50.6 °F 29.89 in NE 4.6 mph 8.1 mph 94% 0.03 in 107.00 W/m2
16:09 52.0 °F 50.0 °F 29.88 in ENE 1.1 mph 9.2 mph 93% 0.03 in 121.00 W/m2
16:14 51.9 °F 50.2 °F 29.88 in NE 6.9 mph 10.3 mph 94% 0.03 in 130.00 W/m2
16:19 51.8 °F 50.1 °F 29.88 in NE 5.8 mph 9.2 mph 94% 0.03 in 128.00 W/m2
16:24 52.1 °F 50.4 °F 29.88 in NE 5.8 mph 9.2 mph 94% 0.03 in 141.00 W/m2
16:29 51.7 °F 50.0 °F 29.88 in ENE 5.8 mph 10.3 mph 94% 0.03 in 149.00 W/m2
16:34 51.6 °F 49.9 °F 29.88 in NE 10.3 mph 11.5 mph 94% 0.03 in 146.00 W/m2
16:39 51.7 °F 50.0 °F 29.87 in NNE 2.3 mph 11.5 mph 94% 0.02 in 142.00 W/m2
16:44 51.6 °F 49.9 °F 29.87 in ENE 3.4 mph 5.8 mph 94% 0.02 in 120.00 W/m2
16:49 51.4 °F 49.7 °F 29.88 in NE 9.2 mph 11.5 mph 94% 0.02 in 109.00 W/m2
16:54 51.1 °F 49.4 °F 29.88 in NE 6.9 mph 9.2 mph 94% 0.02 in 98.00 W/m2
16:59 50.8 °F 49.1 °F 29.88 in NE 4.6 mph 10.3 mph 94% 0.02 in 90.00 W/m2
17:04 51.0 °F 49.3 °F 29.88 in NNE 6.9 mph 10.3 mph 94% 0.01 in 79.00 W/m2
17:09 50.6 °F 48.9 °F 29.88 in NE 2.3 mph 8.1 mph 94% 0.01 in 63.00 W/m2
17:14 50.3 °F 48.6 °F 29.88 in NNE 4.6 mph 6.9 mph 94% 0.01 in 67.00 W/m2
17:19 50.0 °F 48.3 °F 29.88 in NNE 3.4 mph 9.2 mph 94% 0.00 in 72.00 W/m2
17:24 49.9 °F 48.2 °F 29.88 in NNE 2.3 mph 8.1 mph 94% 0.00 in 72.00 W/m2
17:29 49.5 °F 47.8 °F 29.88 in NNE 9.2 mph 11.5 mph 94% 0.00 in 72.00 W/m2
17:34 49.3 °F 47.7 °F 29.88 in NE 6.9 mph 8.1 mph 94% 0.00 in 62.00 W/m2
17:39 49.0 °F 47.3 °F 29.88 in NNE 8.1 mph 9.2 mph 94% 0.00 in 62.00 W/m2
17:44 48.8 °F 47.2 °F 29.88 in NNE 8.1 mph 11.5 mph 94% 0.00 in 72.00 W/m2
17:49 48.6 °F 47.0 °F 29.88 in NE 5.8 mph 10.3 mph 94% 0.00 in 83.00 W/m2
17:54 48.4 °F 46.8 °F 29.88 in NNE 6.9 mph 12.6 mph 94% 0.00 in 76.00 W/m2
17:59 48.3 °F 46.7 °F 29.88 in NE 4.6 mph 10.3 mph 94% 0.00 in 74.00 W/m2
18:04 48.2 °F 46.6 °F 29.89 in NE 1.1 mph 9.2 mph 94% 0.00 in 81.00 W/m2
18:09 47.9 °F 46.3 °F 29.89 in NNE 9.2 mph 9.2 mph 94% 0.00 in 77.00 W/m2
18:14 47.6 °F 46.0 °F 29.89 in NE 9.2 mph 10.3 mph 94% 0.00 in 69.00 W/m2
18:19 47.3 °F 45.7 °F 29.89 in NE 9.2 mph 11.5 mph 94% 0.00 in 60.00 W/m2
18:24 47.0 °F 45.4 °F 29.89 in NE 5.8 mph 10.3 mph 94% 0.00 in 53.00 W/m2
18:29 46.8 °F 45.2 °F 29.90 in NE 10.3 mph 11.5 mph 94% 0.00 in 39.00 W/m2
18:34 46.5 °F 44.9 °F 29.90 in NNE 9.2 mph 11.5 mph 94% 0.00 in 30.00 W/m2
18:40 46.3 °F 44.7 °F 29.90 in NE 5.8 mph 11.5 mph 94% 0.00 in 25.00 W/m2
18:45 46.0 °F 44.4 °F 29.90 in NE 1.1 mph 10.3 mph 94% 0.00 in 16.00 W/m2
18:50 45.7 °F 44.1 °F 29.91 in ENE 4.6 mph 9.2 mph 94% 0.00 in 11.00 W/m2
18:55 45.4 °F 43.8 °F 29.91 in NE 8.1 mph 13.8 mph 94% 0.00 in 7.00 W/m2
19:00 45.2 °F 43.6 °F 29.91 in NE 8.1 mph 11.5 mph 94% 0.00 in 5.00 W/m2
19:05 45.2 °F 43.6 °F 29.91 in NE 5.8 mph 9.2 mph 94% 0.00 in 0.00 W/m2
19:10 45.0 °F 43.4 °F 29.91 in NE 5.8 mph 11.5 mph 94% 0.00 in 0.00 W/m2
19:15 44.9 °F 43.3 °F 29.91 in NE 5.8 mph 11.5 mph 94% 0.00 in 0.00 W/m2
19:20 44.6 °F 43.0 °F 29.91 in NE 1.1 mph 11.5 mph 94% 0.00 in 0.00 W/m2
19:25 44.5 °F 42.9 °F 29.92 in NE 5.8 mph 12.6 mph 94% 0.00 in 0.00 W/m2
19:30 44.4 °F 42.8 °F 29.92 in NNE 2.3 mph 12.6 mph 94% 0.00 in 0.00 W/m2
19:35 44.3 °F 42.7 °F 29.92 in NNE 6.9 mph 9.2 mph 94% 0.00 in 0.00 W/m2
19:40 44.2 °F 42.6 °F 29.92 in NE 3.4 mph 8.1 mph 94% 0.00 in 0.00 W/m2
19:45 44.1 °F 42.5 °F 29.92 in North 6.9 mph 10.3 mph 94% 0.00 in 0.00 W/m2
19:50 43.9 °F 42.3 °F 29.92 in NNE 3.4 mph 10.3 mph 94% 0.00 in 0.00 W/m2
19:55 43.8 °F 42.5 °F 29.92 in NNE 8.1 mph 9.2 mph 95% 0.00 in 0.00 W/m2
20:00 43.8 °F 42.5 °F 29.92 in NE 5.8 mph 12.6 mph 95% 0.00 in 0.00 W/m2
20:05 43.8 °F 42.5 °F 29.92 in NE 4.6 mph 10.3 mph 95% 0.00 in 0.00 W/m2
20:10 43.8 °F 42.5 °F 29.93 in ENE 3.4 mph 11.5 mph 95% 0.00 in 0.00 W/m2
20:15 43.8 °F 42.5 °F 29.93 in NE 8.1 mph 10.3 mph 95% 0.00 in 0.00 W/m2
20:20 43.7 °F 42.4 °F 29.93 in NE 6.9 mph 11.5 mph 95% 0.00 in 0.00 W/m2
20:25 43.6 °F 42.3 °F 29.93 in NE 4.6 mph 16.1 mph 95% 0.00 in 0.00 W/m2
20:30 43.5 °F 42.2 °F 29.93 in NNE 9.2 mph 14.9 mph 95% 0.00 in 0.00 W/m2
20:35 43.5 °F 42.2 °F 29.93 in NE 3.4 mph 11.5 mph 95% 0.00 in 0.00 W/m2
20:40 43.5 °F 41.9 °F 29.93 in ENE 2.3 mph 12.6 mph 94% 0.00 in 0.00 W/m2
20:45 43.5 °F 41.9 °F 29.93 in NE 8.1 mph 14.9 mph 94% 0.00 in 0.00 W/m2
20:50 43.5 °F 41.6 °F 29.93 in ENE 3.4 mph 16.1 mph 93% 0.00 in 0.00 W/m2
20:55 43.4 °F 41.5 °F 29.93 in NE 6.9 mph 12.6 mph 93% 0.00 in 0.00 W/m2
21:00 43.4 °F 41.5 °F 29.94 in NE 11.5 mph 13.8 mph 93% 0.00 in 0.00 W/m2
21:05 43.4 °F 41.5 °F 29.94 in NNE 5.8 mph 13.8 mph 93% 0.00 in 0.00 W/m2
21:11 43.4 °F 41.5 °F 29.94 in NNE 9.2 mph 11.5 mph 93% 0.00 in 0.00 W/m2
21:16 43.4 °F 41.5 °F 29.95 in NE 4.6 mph 12.6 mph 93% 0.00 in 0.00 W/m2
21:21 43.4 °F 41.2 °F 29.95 in NE 10.3 mph 13.8 mph 92% 0.00 in 0.00 W/m2
21:26 43.3 °F 41.1 °F 29.95 in NE 6.9 mph 13.8 mph 92% 0.00 in 0.00 W/m2
21:31 43.3 °F 41.1 °F 29.95 in NE 9.2 mph 11.5 mph 92% 0.00 in 0.00 W/m2
21:36 43.2 °F 41.0 °F 29.95 in NE 2.3 mph 11.5 mph 92% 0.00 in 0.00 W/m2
21:41 43.1 °F 40.9 °F 29.95 in NE 3.4 mph 16.1 mph 92% 0.00 in 0.00 W/m2
21:46 42.8 °F 40.6 °F 29.95 in NE 6.9 mph 16.1 mph 92% 0.00 in 0.00 W/m2
21:51 42.7 °F 40.5 °F 29.95 in NE 5.8 mph 13.8 mph 92% 0.00 in 0.00 W/m2
21:56 42.7 °F 40.5 °F 29.95 in North 6.9 mph 13.8 mph 92% 0.00 in 0.00 W/m2
22:01 42.7 °F 40.5 °F 29.96 in North 12.6 mph 12.6 mph 92% 0.00 in 0.00 W/m2
22:06 42.6 °F 40.4 °F 29.96 in NE 6.9 mph 6.9 mph 92% 0.00 in 0.00 W/m2
22:11 42.6 °F 40.4 °F 29.96 in NNE 9.2 mph 10.3 mph 92% 0.00 in 0.00 W/m2
22:16 42.5 °F 40.3 °F 29.96 in NE 13.8 mph 13.8 mph 92% 0.00 in 0.00 W/m2
22:21 42.4 °F 40.0 °F 29.96 in NNE 9.2 mph 9.2 mph 91% 0.00 in 0.00 W/m2
22:26 42.3 °F 39.9 °F 29.96 in North 8.1 mph 8.1 mph 91% 0.00 in 0.00 W/m2
22:31 42.2 °F 39.8 °F 29.95 in NE 9.2 mph 12.6 mph 91% 0.00 in 0.00 W/m2
22:36 42.0 °F 39.6 °F 29.95 in North 9.2 mph 12.6 mph 91% 0.00 in 0.00 W/m2
22:41 41.8 °F 39.4 °F 29.96 in NNE 12.6 mph 12.6 mph 91% 0.00 in 0.00 W/m2
22:46 41.8 °F 39.4 °F 29.96 in NNE 5.8 mph 11.5 mph 91% 0.00 in 0.00 W/m2
22:51 41.7 °F 39.3 °F 29.96 in NNE 6.9 mph 6.9 mph 91% 0.00 in 0.00 W/m2
22:56 41.7 °F 39.3 °F 29.96 in NE 3.4 mph 8.1 mph 91% 0.00 in 0.00 W/m2
23:01 41.7 °F 39.3 °F 29.96 in North 4.6 mph 9.2 mph 91% 0.00 in 0.00 W/m2
23:06 41.8 °F 39.4 °F 29.96 in NE 14.9 mph 14.9 mph 91% 0.00 in 0.00 W/m2
23:11 41.8 °F 39.4 °F 29.96 in NE 6.9 mph 9.2 mph 91% 0.00 in 0.00 W/m2
peotoneweather.com
Compliments of Weather Underground - 1.5 mb